DW7898 Weather Reports


time (UTC)temp
C
wind
direction
speed
KPH
gust
KPH
rain 1hr
cm
rain 24hr
cm
rain mn
cm
humidity
%
barometer
mb
20260502130340 19 135 11.3 19.3 0.00 0.00 0.00 63 1023.0
20260502123345 20 112 8.0 20.9 0.00 0.00 0.00 55 1023.2
20260502122340 20 148 6.4 12.9 0.00 0.00 0.00 55 1023.0
20260502121347 20 61 6.4 14.5 0.00 0.00 0.00 55 1023.2
20260502120349 20 123 6.4 16.1 0.00 0.00 0.00 54 1023.2
20260502115347 21 123 6.4 17.7 0.00 0.00 0.00 53 1023.2
20260502113354 21 264 4.8 14.5 0.00 0.00 0.00 48 1023.2
20260502112355 21 114 4.8 14.5 0.00 0.00 0.00 45 1023.3
20260502111354 21 132 4.8 11.3 0.00 0.00 0.00 45 1023.3
20260502110340 21 109 8.0 12.9 0.00 0.00 0.00 43 1023.4
20260502105346 21 178 3.2 11.3 0.00 0.00 0.00 46 1023.6
20260502104356 21 129 3.2 9.7 0.00 0.00 0.00 47 1023.9
20260502103359 20 122 4.8 12.9 0.00 0.00 0.00 47 1023.9
20260502102353 20 137 3.2 8.0 0.00 0.00 0.00 50 1024.0
20260502101338 20 326 3.2 8.0 0.00 0.00 0.00 54 1024.0
20260502100340 20 147 1.6 11.3 0.00 0.00 0.00 55 1024.0
20260502091350 18 343 1.6 9.7 0.00 0.00 0.00 60 1024.4
20260502090341 18 358 4.8 6.4 0.00 0.00 0.00 61 1024.5
20260502071340 17 56 3.2 4.8 0.00 0.00 0.00 69 1024.6
20260502070346 17 56 1.6 4.8 0.00 0.00 0.00 70 1024.7
20260502065345 17 56 1.6 4.8 0.00 0.00 0.00 71 1024.7
20260502064345 16 55 1.6 6.4 0.00 0.00 0.00 71 1024.5
20260502063342 16 62 0.0 4.8 0.00 0.00 0.00 71 1024.5
20260502062357 16 62 1.6 6.4 0.00 0.00 0.00 71 1024.5
20260502061340 16 60 1.6 8.0 0.00 0.00 0.00 71 1024.5
20260502060343 16 58 4.8 9.7 0.00 0.00 0.00 71 1024.4
20260502055358 17 57 4.8 8.0 0.00 0.00 0.00 71 1024.3
20260502054357 17 34 1.6 8.0 0.00 0.00 0.00 71 1024.3
20260502053355 17 58 6.4 9.7 0.00 0.00 0.00 71 1024.2
20260502052354 17 39 4.8 8.0 0.00 0.00 0.00 71 1024.1
20260502051339 17 37 1.6 8.0 0.00 0.00 0.00 71 1024.1
20260502050343 17 44 3.2 8.0 0.00 0.00 0.00 71 1024.1
20260502045348 17 35 1.6 6.4 0.00 0.00 0.00 72 1024.1
20260502044353 17 37 0.0 9.7 0.00 0.00 0.00 72 1024.1
20260502043355 17 37 3.2 9.7 0.00 0.00 0.00 72 1024.0
20260502042351 17 21 6.4 9.7 0.00 0.00 0.00 73 1024.0
20260502041355 17 38 4.8 9.7 0.00 0.00 0.00 73 1023.9
20260502040338 17 10 6.4 9.7 0.00 0.00 0.00 74 1024.0
20260502035356 17 29 4.8 11.3 0.00 0.00 0.00 74 1024.0
20260502034336 17 28 6.4 11.3 0.00 0.00 0.00 73 1024.1
20260502033342 17 34 4.8 11.3 0.00 0.00 0.00 73 1023.9
20260502032358 17 54 4.8 8.0 0.00 0.00 0.00 72 1024.0
20260502031342 17 40 4.8 8.0 0.00 0.00 0.00 72 1024.1
20260502030340 17 41 3.2 8.0 0.00 0.00 0.00 72 1024.2
20260502025344 17 40 4.8 8.0 0.00 0.00 0.00 72 1024.4
20260502024342 17 40 1.6 6.4 0.00 0.00 0.00 72 1024.5
20260502023340 17 41 3.2 6.4 0.00 0.00 0.00 71 1024.4
20260502022355 17 42 3.2 6.4 0.00 0.00 0.00 71 1024.3
20260502021338 17 39 4.8 8.0 0.00 0.00 0.00 71 1024.3
20260502020340 16 55 3.2 9.7 0.00 0.00 0.00 70 1024.4
20260502015343 17 67 4.8 8.0 0.00 0.00 0.00 70 1024.4
20260502014355 17 44 3.2 8.0 0.00 0.00 0.00 70 1024.5
20260502013339 17 43 4.8 9.7 0.00 0.00 0.00 69 1024.3
20260502012357 17 48 6.4 9.7 0.00 0.00 0.00 69 1024.4
20260502011338 17 24 3.2 8.0 0.00 0.00 0.00 69 1024.6
20260502010355 17 42 1.6 6.4 0.00 0.00 0.00 68 1024.6
20260502005351 16 42 6.4 8.0 0.00 0.00 0.00 68 1024.7
20260502004341 17 40 4.8 6.4 0.00 0.00 0.00 68 1024.8
20260502003357 16 37 4.8 9.7 0.00 0.00 0.00 68 1025.0
20260502002355 16 34 4.8 11.3 0.00 0.00 0.00 67 1025.0
20260502001356 17 52 3.2 8.0 0.00 0.00 0.00 68 1025.2
20260502000357 17 37 1.6 6.4 0.00 0.00 0.00 67 1025.2
20260501235339 17 37 1.6 8.0 0.00 0.00 0.00 68 1025.4
20260501234347 17 44 3.2 6.4 0.00 0.00 0.00 67 1025.5
20260501233348 17 45 4.8 8.0 0.00 0.00 0.00 67 1025.6
20260501232344 17 49 4.8 8.0 0.00 0.00 0.00 67 1025.6
20260501231346 17 53 3.2 9.7 0.00 0.00 0.00 67 1025.5
20260501230351 17 39 4.8 9.7 0.00 0.00 0.00 68 1025.6
20260501225353 17 53 6.4 9.7 0.00 0.00 0.00 68 1025.5
20260501224353 17 41 4.8 8.0 0.00 0.00 0.00 70 1025.5
20260501223340 17 55 3.2 6.4 0.00 0.00 0.00 71 1025.5
20260501222337 17 11 3.2 6.4 0.00 0.00 0.00 72 1025.4
20260501221344 17 9 3.2 6.4 0.00 0.00 0.00 72 1025.3
20260501220349 17 9 1.6 6.4 0.00 0.00 0.00 73 1025.4
20260501215346 17 9 0.0 6.4 0.00 0.00 0.00 73 1025.5
20260501214348 17 9 1.6 8.0 0.00 0.00 0.00 72 1025.6
20260501213354 17 15 4.8 8.0 0.00 0.00 0.00 72 1025.5
20260501212354 17 19 1.6 6.4 0.00 0.00 0.00 72 1025.5
20260501211354 17 24 4.8 6.4 0.00 0.00 0.00 72 1025.4
20260501210339 17 56 1.6 4.8 0.00 0.00 0.00 71 1025.5
20260501205341 17 56 0.0 4.8 0.00 0.00 0.00 71 1025.6
20260501204345 17 65 1.6 6.4 0.00 0.00 0.00 71 1025.5
20260501203356 17 65 3.2 6.4 0.00 0.00 0.00 70 1025.5
20260501202347 17 69 1.6 6.4 0.00 0.00 0.00 69 1025.3
20260501201358 17 88 0.0 9.7 0.00 0.00 0.00 68 1025.3
20260501200357 17 105 4.8 9.7 0.00 0.00 0.00 69 1025.2
20260501195356 17 97 4.8 9.7 0.00 0.00 0.00 70 1025.1
20260501194352 17 70 0.0 11.3 0.00 0.00 0.00 70 1024.9
20260501193336 17 116 4.8 11.3 0.00 0.00 0.00 70 1024.8
20260501192339 18 96 4.8 12.9 0.00 0.00 0.00 69 1024.7
20260501191343 18 135 1.6 9.7 0.00 0.00 0.00 68 1024.5
20260501190347 18 129 1.6 9.7 0.00 0.00 0.00 68 1024.5
20260501185344 18 0 3.2 12.9 0.00 0.00 0.00 68 1024.4
20260501184348 18 133 4.8 11.3 0.00 0.00 0.00 68 1024.2
20260501183354 18 63 3.2 11.3 0.00 0.00 0.00 67 1024.1
20260501182353 18 61 4.8 14.5 0.00 0.00 0.00 67 1023.9
20260501181356 18 124 6.4 17.7 0.00 0.00 0.00 66 1023.6
20260501180357 18 127 6.4 14.5 0.00 0.00 0.00 65 1023.6
20260501175354 18 98 4.8 14.5 0.00 0.00 0.00 63 1023.6
20260501174356 19 79 6.4 14.5 0.00 0.00 0.00 62 1023.3
20260501173338 19 99 8.0 14.5 0.00 0.00 0.00 61 1023.4
20260501171341 19 124 8.0 16.1 0.00 0.00 0.00 60 1023.2
20260501170345 19 91 9.7 16.1 0.00 0.00 0.00 59 1023.2
20260501165342 20 136 9.7 19.3 0.00 0.00 0.00 58 1023.1
20260501164346 20 107 8.0 14.5 0.00 0.00 0.00 56 1023.2
20260501163337 20 113 4.8 16.1 0.00 0.00 0.00 56 1023.2
20260501162337 20 125 14.5 22.5 0.00 0.00 0.00 54 1023.1
20260501161355 20 164 1.6 16.1 0.00 0.00 0.00 53 1022.9
20260501160337 20 139 8.0 24.1 0.00 0.00 0.00 53 1023.0
20260501155354 20 86 8.0 20.9 0.00 0.00 0.00 52 1023.0
20260501153356 20 114 9.7 17.7 0.00 0.00 0.00 51 1022.9
20260501152355 20 135 6.4 20.9 0.00 0.00 0.00 51 1023.0
20260501151356 21 114 11.3 17.7 0.00 0.00 0.00 50 1022.9
20260501150357 20 126 8.0 20.9 0.00 0.00 0.00 50 1023.0
20260501145358 20 87 9.7 24.1 0.00 0.00 0.00 49 1023.0
20260501144356 21 92 11.3 20.9 0.00 0.00 0.00 49 1023.0
20260501143339 21 102 8.0 22.5 0.00 0.00 0.00 49 1023.0